Time,TemperatureF,DewpointF,PressureIn,WindDirection,WindDirectionDegrees,WindSpeedMPH,WindSpeedGustMPH,Humidity,HourlyPrecipIn,Conditions,Clouds,dailyrainin,SoftwareType,DateUTC
2013-04-12 00:01:00,43.6,32.0,29.80,West,279,0.0,-999.0,63,-99.99,,,0.00,weatherlink.com 1.10,2013-04-12 05:01:00,
2013-04-12 00:16:00,43.3,32.0,29.80,West,279,0.0,-999.0,64,-99.99,,,0.00,weatherlink.com 1.10,2013-04-12 05:16:00,
2013-04-12 00:31:00,43.3,31.0,29.80,West,279,0.0,-999.0,63,-99.99,,,0.00,weatherlink.com 1.10,2013-04-12 05:31:00,
2013-04-12 01:01:00,43.3,31.0,29.81,West,279,0.0,-999.0,63,-99.99,,,0.00,weatherlink.com 1.10,2013-04-12 06:01:00,
2013-04-12 01:16:00,43.2,31.0,29.81,West,279,0.0,-999.0,63,-99.99,,,0.00,weatherlink.com 1.10,2013-04-12 06:16:00,
2013-04-12 01:31:00,43.2,32.0,29.81,West,279,0.0,-999.0,64,-99.99,,,0.00,weatherlink.com 1.10,2013-04-12 06:31:00,
2013-04-12 01:46:00,43.2,32.0,29.81,West,279,0.0,-999.0,65,-99.99,,,0.00,weatherlink.com 1.10,2013-04-12 06:46:00,
2013-04-12 02:01:00,43.2,32.0,29.81,West,279,0.0,-999.0,65,-99.99,,,0.00,weatherlink.com 1.10,2013-04-12 07:01:00,
2013-04-12 02:16:00,43.2,32.0,29.81,West,279,0.0,-999.0,66,-99.99,,,0.00,weatherlink.com 1.10,2013-04-12 07:16:00,
2013-04-12 02:31:00,43.3,33.0,29.81,West,279,0.0,-999.0,66,-99.99,,,0.00,weatherlink.com 1.10,2013-04-12 07:31:00,
2013-04-12 02:46:00,42.9,32.0,29.80,West,279,0.0,-999.0,66,-99.99,,,0.00,weatherlink.com 1.10,2013-04-12 07:46:00,
2013-04-12 03:01:00,42.6,32.0,29.80,West,279,0.0,-999.0,66,-99.99,,,0.00,weatherlink.com 1.10,2013-04-12 08:01:00,
2013-04-12 03:16:00,42.8,32.0,29.80,West,280,0.0,-999.0,66,-99.99,,,0.00,weatherlink.com 1.10,2013-04-12 08:16:00,
2013-04-12 03:31:00,42.6,32.0,29.81,WNW,303,2.0,-999.0,67,-99.99,,,0.00,weatherlink.com 1.10,2013-04-12 08:31:00,
2013-04-12 03:46:00,42.6,32.0,29.81,NW,304,0.0,-999.0,67,-99.99,,,0.00,weatherlink.com 1.10,2013-04-12 08:46:00,
2013-04-12 04:01:00,42.5,33.0,29.82,NW,305,2.0,-999.0,68,-99.99,,,0.00,weatherlink.com 1.10,2013-04-12 09:01:00,
2013-04-12 04:16:00,41.9,32.0,29.82,NW,313,2.0,-999.0,68,-99.99,,,0.00,weatherlink.com 1.10,2013-04-12 09:16:00,
2013-04-12 04:31:00,41.3,31.0,29.83,NW,313,1.0,-999.0,68,-99.99,,,0.00,weatherlink.com 1.10,2013-04-12 09:31:00,
2013-04-12 04:46:00,40.8,31.0,29.84,NNW,327,0.0,-999.0,68,-99.99,,,0.00,weatherlink.com 1.10,2013-04-12 09:46:00,
2013-04-12 05:01:00,40.5,30.0,29.85,North,355,0.0,-999.0,67,-99.99,,,0.00,weatherlink.com 1.10,2013-04-12 10:01:00,
2013-04-12 05:16:00,40.3,30.0,29.86,North,355,5.0,-999.0,66,-99.99,,,0.00,weatherlink.com 1.10,2013-04-12 10:16:00,
2013-04-12 05:31:00,40.5,29.0,29.87,NNW,347,2.0,-999.0,65,-99.99,,,0.00,weatherlink.com 1.10,2013-04-12 10:31:00,
2013-04-12 05:46:00,40.2,30.0,29.87,North,360,5.0,-999.0,66,-99.99,,,0.00,weatherlink.com 1.10,2013-04-12 10:46:00,
2013-04-12 06:01:00,39.9,30.0,29.88,North,5,2.0,-999.0,67,-99.99,,,0.00,weatherlink.com 1.10,2013-04-12 11:01:00,
2013-04-12 06:16:00,39.6,29.0,29.90,North,5,0.0,-999.0,67,-99.99,,,0.00,weatherlink.com 1.10,2013-04-12 11:16:00,
2013-04-12 06:31:00,39.5,30.0,29.90,North,5,0.0,-999.0,68,-99.99,,,0.00,weatherlink.com 1.10,2013-04-12 11:31:00,
2013-04-12 06:46:00,39.2,29.0,29.91,North,5,0.0,-999.0,68,-99.99,,,0.00,weatherlink.com 1.10,2013-04-12 11:46:00,
2013-04-12 07:01:00,38.8,29.0,29.92,North,5,0.0,-999.0,69,-99.99,,,0.00,weatherlink.com 1.10,2013-04-12 12:01:00,
2013-04-12 07:16:00,38.6,30.0,29.93,North,5,0.0,-999.0,70,-99.99,,,0.00,weatherlink.com 1.10,2013-04-12 12:16:00,
2013-04-12 07:31:00,38.9,30.0,29.93,North,5,0.0,-999.0,70,-99.99,,,0.00,weatherlink.com 1.10,2013-04-12 12:31:00,
2013-04-12 07:46:00,39.8,30.0,29.94,North,355,0.0,-999.0,69,-99.99,,,0.00,weatherlink.com 1.10,2013-04-12 12:46:00,
2013-04-12 08:01:00,40.6,30.0,29.95,NNE,22,3.0,-999.0,66,-99.99,,,0.00,weatherlink.com 1.10,2013-04-12 13:01:00,
2013-04-12 08:16:00,41.2,29.0,29.95,NNW,347,2.0,-999.0,62,-99.99,,,0.00,weatherlink.com 1.10,2013-04-12 13:16:00,
2013-04-12 08:31:00,41.6,28.0,29.97,NW,314,5.0,-999.0,59,-99.99,,,0.00,weatherlink.com 1.10,2013-04-12 13:31:00,
2013-04-12 08:46:00,42.1,27.0,29.97,North,355,5.0,-999.0,55,-99.99,,,0.00,weatherlink.com 1.10,2013-04-12 13:46:00,
2013-04-12 09:01:00,42.8,26.0,29.98,NNW,348,9.0,-999.0,52,-99.99,,,0.00,weatherlink.com 1.10,2013-04-12 14:01:00,
2013-04-12 09:16:00,44.1,26.0,29.98,North,5,9.0,-999.0,50,-99.99,,,0.00,weatherlink.com 1.10,2013-04-12 14:16:00,
2013-04-12 09:31:00,44.3,26.0,29.99,North,355,8.0,-999.0,49,-99.99,,,0.00,weatherlink.com 1.10,2013-04-12 14:31:00,
2013-04-12 09:46:00,45.1,26.0,30.00,NNW,344,4.0,-999.0,48,-99.99,,,0.00,weatherlink.com 1.10,2013-04-12 14:46:00,
2013-04-12 10:01:00,45.2,26.0,30.00,NW,317,2.0,-999.0,48,-99.99,,,0.00,weatherlink.com 1.10,2013-04-12 15:01:00,
2013-04-12 10:16:00,45.5,27.0,30.00,NW,312,5.0,-999.0,48,-99.99,,,0.00,weatherlink.com 1.10,2013-04-12 15:16:00,
2013-04-12 10:31:00,46.5,27.0,30.00,NNE,13,4.0,-999.0,47,-99.99,,,0.00,weatherlink.com 1.10,2013-04-12 15:31:00,
2013-04-12 10:46:00,48.8,28.0,30.00,North,355,4.0,-999.0,44,-99.99,,,0.00,weatherlink.com 1.10,2013-04-12 15:46:00,
2013-04-12 11:01:00,50.7,28.0,30.00,North,360,6.0,-999.0,41,-99.99,,,0.00,weatherlink.com 1.10,2013-04-12 16:01:00,
2013-04-12 11:16:00,50.7,27.0,30.00,North,360,7.0,-999.0,40,-99.99,,,0.00,weatherlink.com 1.10,2013-04-12 16:16:00,
2013-04-12 11:31:00,51.4,26.0,30.00,North,360,13.0,-999.0,38,-99.99,,,0.00,weatherlink.com 1.10,2013-04-12 16:31:00,
2013-04-12 11:46:00,51.9,26.0,30.00,NW,306,3.0,-999.0,37,-99.99,,,0.00,weatherlink.com 1.10,2013-04-12 16:46:00,
2013-04-12 12:01:00,52.2,27.0,30.00,WNW,298,2.0,-999.0,38,-99.99,,,0.00,weatherlink.com 1.10,2013-04-12 17:01:00,
2013-04-12 12:16:00,52.3,27.0,30.00,WNW,302,5.0,-999.0,37,-99.99,,,0.00,weatherlink.com 1.10,2013-04-12 17:16:00,
2013-04-12 12:31:00,54.2,27.0,30.01,WNW,289,5.0,-999.0,35,-99.99,,,0.00,weatherlink.com 1.10,2013-04-12 17:31:00,
2013-04-12 13:01:00,55.7,26.0,30.00,NNW,327,5.0,-999.0,32,-99.99,,,0.00,weatherlink.com 1.10,2013-04-12 18:01:00,
2013-04-12 14:31:00,59.6,26.0,29.98,WNW,297,3.0,-999.0,28,-99.99,,,0.00,weatherlink.com 1.10,2013-04-12 19:31:00,
2013-04-12 14:46:00,60.4,27.0,29.98,WNW,295,6.0,-999.0,28,-99.99,,,0.00,weatherlink.com 1.10,2013-04-12 19:46:00,
2013-04-12 15:01:00,60.4,27.0,29.96,NNE,13,5.0,-999.0,28,-99.99,,,0.00,weatherlink.com 1.10,2013-04-12 20:01:00,
2013-04-12 15:16:00,63.2,29.0,29.95,West,278,13.0,-999.0,27,-99.99,,,0.00,weatherlink.com 1.10,2013-04-12 20:16:00,
2013-04-12 15:31:00,62.3,28.0,29.94,NNW,327,6.0,-999.0,27,-99.99,,,0.00,weatherlink.com 1.10,2013-04-12 20:31:00,
2013-04-12 16:16:00,62.9,27.0,29.93,NE,34,9.0,-999.0,26,-99.99,,,0.00,weatherlink.com 1.10,2013-04-12 21:16:00,
2013-04-12 16:46:00,62.7,28.0,29.93,NW,316,2.0,-999.0,27,-99.99,,,0.00,weatherlink.com 1.10,2013-04-12 21:46:00,
2013-04-12 17:01:00,63.1,28.0,29.92,NNE,30,1.0,-999.0,27,-99.99,,,0.00,weatherlink.com 1.10,2013-04-12 22:01:00,
2013-04-12 17:31:00,64.7,29.0,29.93,North,9,0.0,-999.0,26,-99.99,,,0.00,weatherlink.com 1.10,2013-04-12 22:31:00,
2013-04-12 17:46:00,63.9,29.0,29.93,NW,317,3.0,-999.0,27,-99.99,,,0.00,weatherlink.com 1.10,2013-04-12 22:46:00,
2013-04-12 18:16:00,62.7,29.0,29.93,NNE,20,0.0,-999.0,28,-99.99,,,0.00,weatherlink.com 1.10,2013-04-12 23:16:00,
2013-04-12 18:46:00,61.5,28.0,29.93,NNE,26,0.0,-999.0,28,-99.99,,,0.00,weatherlink.com 1.10,2013-04-12 23:46:00,
2013-04-12 19:01:00,61.5,28.0,29.93,NNE,26,0.0,-999.0,28,-99.99,,,0.00,weatherlink.com 1.10,2013-04-13 00:01:00,
2013-04-12 19:16:00,60.5,29.0,29.93,NNE,22,2.0,-999.0,30,-99.99,,,0.00,weatherlink.com 1.10,2013-04-13 00:16:00,
2013-04-12 20:16:00,59.0,30.0,29.93,NNE,22,0.0,-999.0,33,-99.99,,,0.00,weatherlink.com 1.10,2013-04-13 01:16:00,
2013-04-12 20:31:00,58.7,30.0,29.93,NNE,22,0.0,-999.0,34,-99.99,,,0.00,weatherlink.com 1.10,2013-04-13 01:31:00,
2013-04-12 20:46:00,58.3,32.0,29.95,NNE,22,1.0,-999.0,37,-99.99,,,0.00,weatherlink.com 1.10,2013-04-13 01:46:00,
2013-04-12 22:01:00,56.2,34.0,29.97,NNE,28,0.0,-999.0,43,-99.99,,,0.00,weatherlink.com 1.10,2013-04-13 03:01:00,
2013-04-12 22:16:00,55.7,34.0,29.96,NNE,30,0.0,-999.0,44,-99.99,,,0.00,weatherlink.com 1.10,2013-04-13 03:16:00,
2013-04-12 22:31:00,55.3,35.0,29.96,NE,51,3.0,-999.0,46,-99.99,,,0.00,weatherlink.com 1.10,2013-04-13 03:31:00,
2013-04-12 22:46:00,54.8,34.0,29.97,NE,53,1.0,-999.0,46,-99.99,,,0.00,weatherlink.com 1.10,2013-04-13 03:46:00,
2013-04-12 23:16:00,54.5,34.0,29.97,NE,53,0.0,-999.0,47,-99.99,,,0.00,weatherlink.com 1.10,2013-04-13 04:16:00,
2013-04-12 23:31:00,54.2,35.0,29.97,NE,53,0.0,-999.0,48,-99.99,,,0.00,weatherlink.com 1.10,2013-04-13 04:31:00,